Flag for Canada Weather past 2 weeks in Fort Liard, Northwest Territories, Canada

Now
58 °F

Cool.


Feels Like: 58 °F
Forecast: 56 / 68 °F
Wind: 1 mph from Southeast

Location: Lindberg Landing

Current Time: Aug 3, 2015 at 10:21:50 AM

Latest Report: Aug 3, 2015 at 9:00 AM


Visibility: N/A

Pressure: 30.04 "Hg

Humidity: 92%

Dew point: 55 °F

Location of Fort LiardLocation

Historic Weather in Fort Liard — Graph

°F

Fort Liard temperature yesterday

Maximum temperature yesterday: 69 °F (at 5:00 PM)
Minimum temperature yesterday: 53 °F (at 1:00 AM)
Average temperature yesterday: 59 °F

Past Weeks' High & Low Weather Summary

 TemperatureHumidityPressure
High77 °F (Jul 27, 6:00 PM)100% (Jul 25, 9:00 AM)30.04 "Hg (Jul 25, 9:00 AM)
Low44 °F (Jul 31, 6:00 AM)29% (Jul 30, 6:00 PM)29.62 "Hg (Jul 23, 4:00 PM)
Average60 °F77%29.82 "Hg
* Reported Jul 19 9:00 AM — Aug 3 9:00 AM, Fort Liard, Weather by CustomWeather, © 2015

Note: Actual official high and low records may vary slightly from our data, if they occured in-between our weather recording intervals... More about our weather records

Advertising

Fort Liard weather history for previous 24 hours

 ConditionsComfort  
Time TempWeatherWind HumidityBarometerVisibility
9:00 AM
Mon, Aug 3
58 °FCool.1 mph92%30.04 "HgN/A
8:00 AM56 °FCool.No wind90%30.03 "HgN/A
7:00 AM55 °FCool.1 mph98%30.02 "HgN/A
6:00 AM54 °FCool.1 mph97%30.01 "HgN/A
5:00 AM55 °FCool.2 mph97%29.99 "HgN/A
4:00 AM55 °FCool.2 mph96%29.99 "HgN/A
3:00 AM56 °FCool.2 mph95%29.98 "HgN/A
2:00 AM56 °FCool.2 mph95%29.98 "HgN/A
1:00 AM56 °FCool.1 mph96%29.97 "HgN/A
12:00 AM58 °FCool.2 mph95%29.96 "HgN/A
11:00 PM
Sun, Aug 2
58 °FCool.2 mph96%29.96 "HgN/A
10:00 PM59 °FCool.1 mph96%29.95 "HgN/A
9:00 PM61 °FCool.1 mph93%29.95 "HgN/A
8:00 PM68 °FMild.7 mph62%29.94 "HgN/A
7:00 PM67 °FMild.5 mph59%29.94 "HgN/A
6:00 PM67 °FMild.3 mph66%29.95 "HgN/A
5:00 PM69 °FMild.5 mph60%29.94 "HgN/A
4:00 PM66 °FMild.5 mph68%29.96 "HgN/A
3:00 PM64 °FMild.1 mph80%29.96 "HgN/A
2:00 PM60 °FCool.2 mph88%29.98 "HgN/A
1:00 PM63 °FMild.3 mph81%29.98 "HgN/A
12:00 PM60 °FCool.1 mph78%30.00 "HgN/A
11:00 AM56 °FCool.1 mph93%30.00 "HgN/A
10:00 AM58 °FCool.1 mph85%29.99 "HgN/A
Weather by CustomWeather, © 2015

See weather overviewHow to use our weather pages